Year,Month,Day,Hour,Minute,Value (Times are PST for temperature in C)
2015,10,14,00,00,6.50
2015,10,14,00,01,6.50
2015,10,14,00,02,6.40
2015,10,14,00,03,6.40
2015,10,14,00,04,6.40
2015,10,14,00,05,6.40
2015,10,14,00,06,6.40
2015,10,14,00,07,6.40
2015,10,14,00,08,6.40
2015,10,14,00,09,6.30
2015,10,14,00,10,6.30
2015,10,14,00,11,6.30
2015,10,14,00,12,6.30
2015,10,14,00,13,6.30
2015,10,14,00,14,6.30
2015,10,14,00,15,6.30
2015,10,14,00,16,6.30
2015,10,14,00,17,6.30
2015,10,14,00,18,6.30
2015,10,14,00,19,6.30
2015,10,14,00,20,6.30
2015,10,14,00,21,6.30
2015,10,14,00,22,6.30
2015,10,14,00,23,6.30
2015,10,14,00,24,6.30
2015,10,14,00,25,6.30
2015,10,14,00,26,6.30
2015,10,14,00,27,6.30
2015,10,14,00,28,6.20
2015,10,14,00,29,6.20
2015,10,14,00,30,6.20
2015,10,14,00,31,6.20
2015,10,14,00,32,6.20
2015,10,14,00,33,6.20
2015,10,14,00,34,6.10
2015,10,14,00,35,6.20
2015,10,14,00,36,6.20
2015,10,14,00,37,6.20
2015,10,14,00,38,6.20
2015,10,14,00,39,6.30
2015,10,14,00,40,6.30
2015,10,14,00,41,6.30
2015,10,14,00,42,6.40
2015,10,14,00,43,6.40
2015,10,14,00,44,6.40
2015,10,14,00,45,6.40
2015,10,14,00,46,6.40
2015,10,14,00,47,6.30
2015,10,14,00,48,6.30
2015,10,14,00,49,6.30
2015,10,14,00,50,6.30
2015,10,14,00,51,6.30
2015,10,14,00,52,6.30
2015,10,14,00,53,6.30
2015,10,14,00,54,6.30
2015,10,14,00,55,6.30
2015,10,14,00,56,6.30
2015,10,14,00,57,6.30
2015,10,14,00,58,6.30
2015,10,14,00,59,6.30
2015,10,14,01,00,6.30
2015,10,14,01,01,6.30
2015,10,14,01,02,6.30
2015,10,14,01,03,6.30
2015,10,14,01,04,6.30
2015,10,14,01,05,6.30
2015,10,14,01,06,6.30
2015,10,14,01,07,6.30
2015,10,14,01,08,6.30
2015,10,14,01,09,6.30
2015,10,14,01,10,6.30
2015,10,14,01,11,6.30
2015,10,14,01,12,6.30
2015,10,14,01,13,6.30
2015,10,14,01,14,6.30
2015,10,14,01,15,6.30
2015,10,14,01,16,6.20
2015,10,14,01,17,6.20
2015,10,14,01,18,6.20
2015,10,14,01,19,6.20
2015,10,14,01,20,6.20
2015,10,14,01,21,6.20
2015,10,14,01,22,6.20
2015,10,14,01,23,6.20
2015,10,14,01,24,6.10
2015,10,14,01,25,6.10
2015,10,14,01,26,6.10
2015,10,14,01,27,6.10
2015,10,14,01,28,6.10
2015,10,14,01,29,6.10
2015,10,14,01,30,6.10
2015,10,14,01,31,6.10
2015,10,14,01,32,6.10
2015,10,14,01,33,6.10
2015,10,14,01,34,6.10
2015,10,14,01,35,6.10
2015,10,14,01,36,6.10
2015,10,14,01,37,6.10
2015,10,14,01,38,6.20
2015,10,14,01,39,6.20
2015,10,14,01,40,6.20
2015,10,14,01,41,6.20
2015,10,14,01,42,6.20
2015,10,14,01,43,6.20
2015,10,14,01,44,6.20
2015,10,14,01,45,6.20
2015,10,14,01,46,6.30
2015,10,14,01,47,6.30
2015,10,14,01,48,6.30
2015,10,14,01,49,6.30
2015,10,14,01,50,6.30
2015,10,14,01,51,6.30
2015,10,14,01,52,6.30
2015,10,14,01,53,6.40
2015,10,14,01,54,6.40
2015,10,14,01,55,6.40
2015,10,14,01,56,6.40
2015,10,14,01,57,6.40
2015,10,14,01,58,6.40
2015,10,14,01,59,6.40
2015,10,14,02,00,6.40
2015,10,14,02,01,6.40
2015,10,14,02,02,6.50
2015,10,14,02,03,6.50
2015,10,14,02,04,6.50
2015,10,14,02,05,6.50
2015,10,14,02,06,6.50
2015,10,14,02,07,6.50
2015,10,14,02,08,6.60
2015,10,14,02,09,6.60
2015,10,14,02,10,6.60
2015,10,14,02,11,6.70
2015,10,14,02,12,6.70
2015,10,14,02,13,6.70
2015,10,14,02,14,6.70
2015,10,14,02,15,6.70
2015,10,14,02,16,6.70
2015,10,14,02,17,6.70
2015,10,14,02,18,6.60
2015,10,14,02,19,6.60
2015,10,14,02,20,6.60
2015,10,14,02,21,6.60
2015,10,14,02,22,6.60
2015,10,14,02,23,6.60
2015,10,14,02,24,6.60
2015,10,14,02,25,6.60
2015,10,14,02,26,6.60
2015,10,14,02,27,6.60
2015,10,14,02,28,6.60
2015,10,14,02,29,6.60
2015,10,14,02,30,6.60
2015,10,14,02,31,6.60
2015,10,14,02,32,6.60
2015,10,14,02,33,6.60
2015,10,14,02,34,6.70
2015,10,14,02,35,6.70
2015,10,14,02,36,6.70
2015,10,14,02,37,6.70
2015,10,14,02,38,6.80
2015,10,14,02,39,6.70
2015,10,14,02,40,6.70
2015,10,14,02,41,6.70
2015,10,14,02,42,6.70
2015,10,14,02,43,6.70
2015,10,14,02,44,6.70
2015,10,14,02,45,6.60
2015,10,14,02,46,6.60
2015,10,14,02,47,6.60
2015,10,14,02,48,6.60
2015,10,14,02,49,6.60
2015,10,14,02,50,6.60
2015,10,14,02,51,6.60
2015,10,14,02,52,6.60
2015,10,14,02,53,6.60
2015,10,14,02,54,6.60
2015,10,14,02,55,6.60
2015,10,14,02,56,6.60
2015,10,14,02,57,6.60
2015,10,14,02,58,6.60
2015,10,14,02,59,6.60
2015,10,14,03,00,6.60
2015,10,14,03,01,6.60
2015,10,14,03,02,6.60
2015,10,14,03,03,6.60
2015,10,14,03,04,6.60
2015,10,14,03,05,6.60
2015,10,14,03,06,6.50
2015,10,14,03,07,6.50
2015,10,14,03,08,6.50
2015,10,14,03,09,6.50
2015,10,14,03,10,6.40
2015,10,14,03,11,6.40
2015,10,14,03,12,6.40
2015,10,14,03,13,6.40
2015,10,14,03,14,6.40
2015,10,14,03,15,6.40
2015,10,14,03,16,6.40
2015,10,14,03,17,6.40
2015,10,14,03,18,6.40
2015,10,14,03,19,6.40
2015,10,14,03,20,6.40
2015,10,14,03,21,6.30
2015,10,14,03,22,6.30
2015,10,14,03,23,6.30
2015,10,14,03,24,6.30
2015,10,14,03,25,6.20
2015,10,14,03,26,6.20
2015,10,14,03,27,6.20
2015,10,14,03,28,6.20
2015,10,14,03,29,6.20
2015,10,14,03,30,6.20
2015,10,14,03,31,6.20
2015,10,14,03,32,6.20
2015,10,14,03,33,6.20
2015,10,14,03,34,6.20
2015,10,14,03,35,6.20
2015,10,14,03,36,6.20
2015,10,14,03,37,6.30
2015,10,14,03,38,6.30
2015,10,14,03,39,6.30
2015,10,14,03,40,6.30
2015,10,14,03,41,6.30
2015,10,14,03,42,6.30
2015,10,14,03,43,6.30
2015,10,14,03,44,6.30
2015,10,14,03,49,6.30
2015,10,14,03,50,6.30
2015,10,14,03,51,6.30
2015,10,14,03,52,6.30
2015,10,14,03,53,6.30
2015,10,14,03,54,6.30
2015,10,14,03,55,6.30
2015,10,14,03,56,6.30
2015,10,14,03,57,6.30
2015,10,14,03,58,6.30
2015,10,14,03,59,6.30
2015,10,14,04,00,6.30
2015,10,14,04,01,6.30
2015,10,14,04,02,6.30
2015,10,14,04,03,6.30
2015,10,14,04,04,6.30
2015,10,14,04,05,6.30
2015,10,14,04,06,6.30
2015,10,14,04,07,6.30
2015,10,14,04,08,6.30
2015,10,14,04,09,6.30
2015,10,14,04,10,6.30
2015,10,14,04,11,6.30
2015,10,14,04,12,6.30
2015,10,14,04,13,6.30
2015,10,14,04,14,6.30
2015,10,14,04,15,6.30
2015,10,14,04,16,6.30
2015,10,14,04,17,6.30
2015,10,14,04,18,6.30
2015,10,14,04,19,6.30
2015,10,14,04,20,6.30
2015,10,14,04,21,6.30
2015,10,14,04,22,6.30
2015,10,14,04,23,6.20
2015,10,14,04,24,6.20
2015,10,14,04,25,6.20
2015,10,14,04,26,6.20
2015,10,14,04,27,6.20
2015,10,14,04,28,6.20
2015,10,14,04,29,6.20
2015,10,14,04,30,6.20
2015,10,14,04,31,6.20
2015,10,14,04,32,6.20
2015,10,14,04,33,6.20
2015,10,14,04,34,6.20
2015,10,14,04,35,6.20
2015,10,14,04,36,6.20
2015,10,14,04,37,6.20
2015,10,14,04,38,6.20
2015,10,14,04,39,6.20
2015,10,14,04,40,6.20
2015,10,14,04,41,6.20
2015,10,14,04,42,6.20
2015,10,14,04,43,6.10
2015,10,14,04,44,6.10
2015,10,14,04,45,6.20
2015,10,14,04,46,6.20
2015,10,14,04,47,6.20
2015,10,14,04,48,6.20
2015,10,14,04,49,6.20
2015,10,14,04,50,6.20
2015,10,14,04,51,6.20
2015,10,14,04,52,6.20
2015,10,14,04,53,6.20
2015,10,14,04,54,6.20
2015,10,14,04,55,6.20
2015,10,14,04,56,6.20
2015,10,14,04,57,6.20
2015,10,14,04,58,6.20
2015,10,14,04,59,6.20
2015,10,14,05,00,6.20
2015,10,14,05,01,6.20
2015,10,14,05,02,6.20
2015,10,14,05,03,6.30
2015,10,14,05,04,6.30
2015,10,14,05,05,6.30
2015,10,14,05,06,6.20
2015,10,14,05,07,6.20
2015,10,14,05,08,6.20
2015,10,14,05,09,6.20
2015,10,14,05,10,6.20
2015,10,14,05,11,6.20
2015,10,14,05,12,6.20
2015,10,14,05,13,6.20
2015,10,14,05,14,6.10
2015,10,14,05,15,6.10
2015,10,14,05,16,6.10
2015,10,14,05,17,6.10
2015,10,14,05,18,6.10
2015,10,14,05,19,6.10
2015,10,14,05,20,6.00
2015,10,14,05,21,6.00
2015,10,14,05,22,6.00
2015,10,14,05,23,5.90
2015,10,14,05,24,5.90
2015,10,14,05,25,5.90
2015,10,14,05,26,5.80
2015,10,14,05,27,5.80
2015,10,14,05,28,5.80
2015,10,14,05,29,5.80
2015,10,14,05,30,5.80
2015,10,14,05,31,5.80
2015,10,14,05,32,5.80
2015,10,14,05,33,5.80
2015,10,14,05,34,5.80
2015,10,14,05,35,5.80
2015,10,14,05,36,5.80
2015,10,14,05,37,5.80
2015,10,14,05,38,5.80
2015,10,14,05,39,5.80
2015,10,14,05,40,5.80
2015,10,14,05,41,5.80
2015,10,14,05,42,5.80
2015,10,14,05,43,5.80
2015,10,14,05,44,5.70
2015,10,14,05,45,5.70
2015,10,14,05,46,5.70
2015,10,14,05,47,5.60
2015,10,14,05,48,5.60
2015,10,14,05,49,5.60
2015,10,14,05,50,5.60
2015,10,14,05,51,5.60
2015,10,14,05,52,5.60
2015,10,14,05,53,5.60
2015,10,14,05,54,5.60
2015,10,14,05,55,5.60
2015,10,14,05,56,5.50
2015,10,14,05,57,5.50
2015,10,14,05,58,5.50
2015,10,14,05,59,5.50
2015,10,14,06,00,5.50
2015,10,14,06,01,5.50
2015,10,14,06,02,5.50
2015,10,14,06,03,5.50
2015,10,14,06,04,5.50
2015,10,14,06,05,5.40
2015,10,14,06,06,5.40
2015,10,14,06,07,5.40
2015,10,14,06,08,5.40
2015,10,14,06,09,5.40
2015,10,14,06,10,5.40
2015,10,14,06,11,5.40
2015,10,14,06,12,5.40
2015,10,14,06,13,5.40
2015,10,14,06,14,5.40
2015,10,14,06,15,5.40
2015,10,14,06,16,5.40
2015,10,14,06,17,5.30
2015,10,14,06,18,5.30
2015,10,14,06,19,5.30
2015,10,14,06,20,5.30
2015,10,14,06,21,5.30
2015,10,14,06,22,5.30
2015,10,14,06,23,5.30
2015,10,14,06,24,5.30
2015,10,14,06,25,5.30
2015,10,14,06,26,5.30
2015,10,14,06,27,5.30
2015,10,14,06,28,5.30
2015,10,14,06,29,5.30
2015,10,14,06,30,5.30
2015,10,14,06,31,5.30
2015,10,14,06,32,5.30
2015,10,14,06,33,5.30
2015,10,14,06,34,5.30
2015,10,14,06,35,5.30
2015,10,14,06,36,5.30
2015,10,14,06,37,5.40
2015,10,14,06,38,5.40
2015,10,14,06,39,5.40
2015,10,14,06,40,5.40
2015,10,14,06,41,5.40
2015,10,14,06,42,5.40
2015,10,14,06,43,5.40
2015,10,14,06,44,5.50
2015,10,14,06,45,5.50
2015,10,14,06,46,5.50
2015,10,14,06,47,5.50
2015,10,14,06,48,5.60
2015,10,14,06,49,5.60
2015,10,14,06,50,5.60
2015,10,14,06,51,5.60
2015,10,14,06,52,5.60
2015,10,14,06,53,5.60
2015,10,14,06,54,5.70
2015,10,14,06,55,5.70
2015,10,14,06,56,5.70
2015,10,14,06,57,5.70
2015,10,14,06,58,5.70
2015,10,14,06,59,5.70
2015,10,14,07,00,5.70
2015,10,14,07,01,5.80
2015,10,14,07,02,5.80
2015,10,14,07,03,5.80
2015,10,14,07,04,5.80
2015,10,14,07,05,5.80
2015,10,14,07,06,5.80
2015,10,14,07,07,5.80
2015,10,14,07,08,5.80
2015,10,14,07,09,5.80
2015,10,14,07,10,5.80
2015,10,14,07,11,5.90
2015,10,14,07,12,5.90
2015,10,14,07,13,5.90
2015,10,14,07,14,5.90
2015,10,14,07,15,5.90
2015,10,14,07,16,5.90
2015,10,14,07,17,5.90
2015,10,14,07,18,5.90
2015,10,14,07,19,6.00
2015,10,14,07,20,6.00
2015,10,14,07,21,6.00
2015,10,14,07,22,6.10
2015,10,14,07,23,6.10
2015,10,14,07,24,6.10
2015,10,14,07,25,6.10
2015,10,14,07,26,6.10
2015,10,14,07,27,6.20
2015,10,14,07,28,6.20
2015,10,14,07,29,6.20
2015,10,14,07,30,6.20
2015,10,14,07,31,6.30
2015,10,14,07,32,6.30
2015,10,14,07,33,6.30
2015,10,14,07,34,6.30
2015,10,14,07,35,6.30
2015,10,14,07,36,6.40
2015,10,14,07,37,6.40
2015,10,14,07,38,6.40
2015,10,14,07,39,6.50
2015,10,14,07,40,6.50
2015,10,14,07,41,6.60
2015,10,14,07,42,6.60
2015,10,14,07,43,6.70
2015,10,14,07,44,6.70
2015,10,14,07,45,6.70
2015,10,14,07,46,6.70
2015,10,14,07,47,6.80
2015,10,14,07,48,6.80
2015,10,14,07,49,6.80
2015,10,14,07,50,6.80
2015,10,14,07,51,6.80
2015,10,14,07,52,6.80
2015,10,14,07,53,6.90
2015,10,14,07,54,6.90
2015,10,14,07,55,6.90
2015,10,14,07,56,6.90
2015,10,14,07,57,7.00
2015,10,14,07,58,7.00
2015,10,14,07,59,7.00
2015,10,14,08,00,7.00
2015,10,14,08,01,7.10
2015,10,14,08,02,7.10
2015,10,14,08,03,7.10
2015,10,14,08,04,7.10
2015,10,14,08,05,7.10
2015,10,14,08,06,7.10
2015,10,14,08,07,7.20
2015,10,14,08,08,7.20
2015,10,14,08,09,7.20
2015,10,14,08,10,7.20
2015,10,14,08,11,7.30
2015,10,14,08,12,7.30
2015,10,14,08,13,7.30
2015,10,14,08,14,7.30
2015,10,14,08,15,7.40
2015,10,14,08,16,7.40
2015,10,14,08,17,7.40
2015,10,14,08,18,7.40
2015,10,14,08,19,7.50
2015,10,14,08,20,7.50
2015,10,14,08,21,7.50
2015,10,14,08,22,7.60
2015,10,14,08,23,7.60
2015,10,14,08,24,7.70
2015,10,14,08,25,7.70
2015,10,14,08,26,7.70
2015,10,14,08,27,7.80
2015,10,14,08,28,7.80
2015,10,14,08,29,7.80
2015,10,14,08,30,7.90
2015,10,14,08,31,7.90
2015,10,14,08,32,7.90
2015,10,14,08,33,7.90
2015,10,14,08,34,8.00
2015,10,14,08,35,8.00
2015,10,14,08,36,8.00
2015,10,14,08,37,8.00
2015,10,14,08,38,8.10
2015,10,14,08,39,8.10
2015,10,14,08,40,8.10
2015,10,14,08,41,8.10
2015,10,14,08,42,8.10
2015,10,14,08,43,8.20
2015,10,14,08,44,8.20
2015,10,14,08,45,8.30
2015,10,14,08,46,8.30
2015,10,14,08,47,8.40
2015,10,14,08,48,8.40
2015,10,14,08,49,8.40
2015,10,14,08,50,8.50
2015,10,14,08,51,8.50
2015,10,14,08,52,8.50
2015,10,14,08,53,8.60
2015,10,14,08,54,8.60
2015,10,14,08,55,8.70
2015,10,14,08,56,8.70
2015,10,14,08,57,8.70
2015,10,14,08,58,8.80
2015,10,14,08,59,8.80
2015,10,14,09,00,8.90
2015,10,14,09,01,9.00
2015,10,14,09,02,9.00
2015,10,14,09,03,9.10
2015,10,14,09,04,9.20
2015,10,14,09,05,9.30
2015,10,14,09,06,9.30
2015,10,14,09,07,9.40
2015,10,14,09,08,9.40
2015,10,14,09,09,9.50
2015,10,14,09,10,9.50
2015,10,14,09,11,9.60
2015,10,14,09,12,9.60
2015,10,14,09,13,9.70
2015,10,14,09,14,9.80
2015,10,14,09,15,9.90
2015,10,14,09,16,9.90
2015,10,14,09,17,9.90
2015,10,14,09,18,9.90
2015,10,14,09,19,9.90
2015,10,14,09,20,9.90
2015,10,14,09,21,10.00
2015,10,14,09,22,10.00
2015,10,14,09,23,10.00
2015,10,14,09,24,10.10
2015,10,14,09,25,10.10
2015,10,14,09,26,10.20
2015,10,14,09,27,10.20
2015,10,14,09,28,10.20
2015,10,14,09,29,10.30
2015,10,14,09,30,10.30
2015,10,14,09,31,10.30
2015,10,14,09,32,10.20
2015,10,14,09,33,10.20
2015,10,14,09,34,10.20
2015,10,14,09,35,10.20
2015,10,14,09,36,10.20
2015,10,14,09,37,10.30
2015,10,14,09,38,10.30
2015,10,14,09,39,10.30
2015,10,14,09,40,10.30
2015,10,14,09,41,10.30
2015,10,14,09,42,10.30
2015,10,14,09,43,10.30
2015,10,14,09,44,10.30
2015,10,14,09,45,10.30
2015,10,14,09,46,10.30
2015,10,14,09,47,10.30
2015,10,14,09,48,10.30
2015,10,14,09,49,10.30
2015,10,14,09,50,10.30
2015,10,14,09,51,10.30
2015,10,14,09,52,10.40
2015,10,14,09,53,10.40
2015,10,14,09,54,10.40
2015,10,14,09,55,10.40
2015,10,14,09,56,10.40
2015,10,14,09,57,10.40
2015,10,14,09,58,10.40
2015,10,14,09,59,10.40
2015,10,14,10,00,10.50
2015,10,14,10,01,10.50
2015,10,14,10,02,10.50
2015,10,14,10,03,10.50
2015,10,14,10,04,10.50
2015,10,14,10,05,10.60
2015,10,14,10,06,10.60
2015,10,14,10,07,10.70
2015,10,14,10,08,10.70
2015,10,14,10,09,10.80
2015,10,14,10,10,10.80
2015,10,14,10,11,10.90
2015,10,14,10,12,11.00
2015,10,14,10,13,11.00
2015,10,14,10,14,11.10
2015,10,14,10,15,11.10
2015,10,14,10,16,11.20
2015,10,14,10,17,11.20
2015,10,14,10,18,11.20
2015,10,14,10,19,11.20
2015,10,14,10,20,11.20
2015,10,14,10,21,11.20
2015,10,14,10,22,11.30
2015,10,14,10,23,11.30
2015,10,14,10,24,11.30
2015,10,14,10,25,11.40
2015,10,14,10,26,11.40
2015,10,14,10,27,11.50
2015,10,14,10,28,11.60
2015,10,14,10,29,11.60
2015,10,14,10,30,11.70
2015,10,14,10,31,11.70
2015,10,14,10,32,11.80
2015,10,14,10,33,11.90
2015,10,14,10,34,11.90
2015,10,14,10,35,11.90
2015,10,14,10,36,11.90
2015,10,14,10,37,12.00
2015,10,14,10,38,12.00
2015,10,14,10,39,12.10
2015,10,14,10,40,12.10
2015,10,14,10,41,12.10
2015,10,14,10,42,12.10
2015,10,14,10,43,12.20
2015,10,14,10,44,12.20
2015,10,14,10,45,12.30
2015,10,14,10,46,12.30
2015,10,14,10,47,12.30
2015,10,14,10,48,12.30
2015,10,14,10,49,12.30
2015,10,14,10,50,12.40
2015,10,14,10,51,12.40
2015,10,14,10,52,12.40
2015,10,14,10,53,12.40
2015,10,14,10,54,12.40
2015,10,14,10,55,12.40
2015,10,14,10,56,12.40
2015,10,14,10,57,12.40
2015,10,14,10,58,12.40
2015,10,14,10,59,12.50
2015,10,14,11,00,12.50
2015,10,14,11,01,12.50
2015,10,14,11,02,12.50
2015,10,14,11,03,12.50
2015,10,14,11,04,12.40
2015,10,14,11,05,12.40
2015,10,14,11,06,12.40
2015,10,14,11,07,12.30
2015,10,14,11,08,12.30
2015,10,14,11,09,12.30
2015,10,14,11,10,12.30
2015,10,14,11,11,12.30
2015,10,14,11,12,12.30
2015,10,14,11,13,12.30
2015,10,14,11,14,12.30
2015,10,14,11,15,12.30
2015,10,14,11,16,12.40
2015,10,14,11,17,12.40
2015,10,14,11,18,12.40
2015,10,14,11,19,12.50
2015,10,14,11,20,12.60
2015,10,14,11,21,12.60
2015,10,14,11,22,12.60
2015,10,14,11,23,12.60
2015,10,14,11,24,12.60
2015,10,14,11,25,12.70
2015,10,14,11,26,12.70
2015,10,14,11,27,12.80
2015,10,14,11,28,12.80
2015,10,14,11,29,12.70
2015,10,14,11,30,12.80
2015,10,14,11,31,12.80
2015,10,14,11,32,12.80
2015,10,14,11,33,12.80
2015,10,14,11,34,12.80
2015,10,14,11,35,12.90
2015,10,14,11,36,12.90
2015,10,14,11,37,13.00
2015,10,14,11,38,13.10
2015,10,14,11,39,13.10
2015,10,14,11,40,13.10
2015,10,14,11,41,13.20
2015,10,14,11,42,13.30
2015,10,14,11,43,13.30
2015,10,14,11,44,13.30
2015,10,14,11,45,13.30
2015,10,14,11,46,13.40
2015,10,14,11,47,13.40
2015,10,14,11,48,13.30
2015,10,14,11,49,13.30
2015,10,14,11,50,13.30
2015,10,14,11,51,13.30
2015,10,14,11,52,13.30
2015,10,14,11,53,13.30
2015,10,14,11,54,13.30
2015,10,14,11,55,13.30
2015,10,14,11,56,13.40
2015,10,14,11,57,13.40
2015,10,14,11,58,13.50
2015,10,14,11,59,13.50
2015,10,14,12,00,13.60
2015,10,14,12,01,13.60
2015,10,14,12,02,13.60
2015,10,14,12,03,13.70
2015,10,14,12,04,13.70
2015,10,14,12,05,13.70
2015,10,14,12,06,13.70
2015,10,14,12,07,13.70
2015,10,14,12,08,13.70
2015,10,14,12,09,13.80
2015,10,14,12,10,13.80
2015,10,14,12,11,13.80
2015,10,14,12,12,13.80
2015,10,14,12,13,13.80
2015,10,14,12,14,13.80
2015,10,14,12,15,13.90
2015,10,14,12,16,13.90
2015,10,14,12,17,13.90
2015,10,14,12,18,14.00
2015,10,14,12,19,14.00
2015,10,14,12,20,14.10
2015,10,14,12,21,14.20
2015,10,14,12,22,14.20
2015,10,14,12,23,14.20
2015,10,14,12,24,14.30
2015,10,14,12,25,14.30
2015,10,14,12,26,14.30
2015,10,14,12,27,14.30
2015,10,14,12,28,14.30
2015,10,14,12,29,14.40
2015,10,14,12,30,14.40
2015,10,14,12,31,14.40
2015,10,14,12,32,14.40
2015,10,14,12,33,14.40
2015,10,14,12,34,14.50
2015,10,14,12,35,14.50
2015,10,14,12,36,14.50
2015,10,14,12,37,14.60
2015,10,14,12,38,14.60
2015,10,14,12,39,14.60
2015,10,14,12,40,14.60
2015,10,14,12,41,14.70
2015,10,14,12,42,14.70
2015,10,14,12,43,14.70
2015,10,14,12,44,14.70
2015,10,14,12,45,14.70
2015,10,14,12,46,14.70
2015,10,14,12,47,14.80
2015,10,14,12,48,14.80
2015,10,14,12,49,15.00
2015,10,14,12,50,15.00
2015,10,14,12,51,15.00
2015,10,14,12,52,15.00
2015,10,14,12,53,15.10
2015,10,14,12,54,15.20
2015,10,14,12,55,15.20
2015,10,14,12,56,15.20
2015,10,14,12,57,15.10
2015,10,14,12,58,15.00
2015,10,14,12,59,15.00
2015,10,14,13,00,15.00
2015,10,14,13,01,15.00
2015,10,14,13,02,15.00
2015,10,14,13,03,15.00
2015,10,14,13,04,15.20
2015,10,14,13,05,15.30
2015,10,14,13,06,15.30
2015,10,14,13,07,15.40
2015,10,14,13,08,15.50
2015,10,14,13,09,15.50
2015,10,14,13,10,15.60
2015,10,14,13,11,15.60
2015,10,14,13,12,15.60
2015,10,14,13,13,15.60
2015,10,14,13,14,15.70
2015,10,14,13,15,15.70
2015,10,14,13,16,15.70
2015,10,14,13,17,15.70
2015,10,14,13,18,15.70
2015,10,14,13,19,15.70
2015,10,14,13,20,15.70
2015,10,14,13,21,15.70
2015,10,14,13,22,15.70
2015,10,14,13,23,15.70
2015,10,14,13,24,15.70
2015,10,14,13,25,15.70
2015,10,14,13,26,15.80
2015,10,14,13,27,15.90
2015,10,14,13,28,15.90
2015,10,14,13,29,16.00
2015,10,14,13,30,16.10
2015,10,14,13,31,16.10
2015,10,14,13,32,16.10
2015,10,14,13,33,16.10
2015,10,14,13,34,16.10
2015,10,14,13,35,16.20
2015,10,14,13,36,16.20
2015,10,14,13,37,16.30
2015,10,14,13,38,16.30
2015,10,14,13,39,16.30
2015,10,14,13,40,16.30
2015,10,14,13,41,16.30
2015,10,14,13,42,16.30
2015,10,14,13,43,16.30
2015,10,14,13,44,16.30
2015,10,14,13,45,16.40
2015,10,14,13,46,16.40
2015,10,14,13,47,16.40
2015,10,14,13,48,16.40
2015,10,14,13,49,16.40
2015,10,14,13,50,16.40
2015,10,14,13,51,16.50
2015,10,14,13,52,16.50
2015,10,14,13,53,16.60
2015,10,14,13,54,16.60
2015,10,14,13,55,16.70
2015,10,14,13,56,16.70
2015,10,14,13,57,16.70
2015,10,14,13,58,16.70
2015,10,14,13,59,16.70
2015,10,14,14,00,16.70
2015,10,14,14,01,16.60
2015,10,14,14,02,16.50
2015,10,14,14,03,16.50
2015,10,14,14,04,16.40
2015,10,14,14,05,16.30
2015,10,14,14,06,16.30
2015,10,14,14,07,16.40
2015,10,14,14,08,16.40
2015,10,14,14,09,16.40
2015,10,14,14,10,16.50
2015,10,14,14,11,16.50
2015,10,14,14,12,16.60
2015,10,14,14,13,16.50
2015,10,14,14,14,16.50
2015,10,14,14,15,16.50
2015,10,14,14,16,16.40
2015,10,14,14,17,16.40
2015,10,14,14,18,16.40
2015,10,14,14,19,16.40
2015,10,14,14,20,16.40
2015,10,14,14,21,16.40
2015,10,14,14,22,16.50
2015,10,14,14,23,16.40
2015,10,14,14,24,16.50
2015,10,14,14,25,16.40
2015,10,14,14,26,16.50
2015,10,14,14,27,16.50
2015,10,14,14,28,16.50
2015,10,14,14,29,16.50
2015,10,14,14,30,16.50
2015,10,14,14,31,16.60
2015,10,14,14,32,16.60
2015,10,14,14,33,16.70
2015,10,14,14,34,16.70
2015,10,14,14,35,16.70
2015,10,14,14,36,16.70
2015,10,14,14,37,16.70
2015,10,14,14,38,16.80
2015,10,14,14,39,16.80
2015,10,14,14,40,16.90
2015,10,14,14,41,17.00
2015,10,14,14,42,17.00
2015,10,14,14,43,17.10
2015,10,14,14,44,17.10
2015,10,14,14,45,17.10
2015,10,14,14,46,17.10
2015,10,14,14,47,17.10
2015,10,14,14,48,17.00
2015,10,14,14,49,17.00
2015,10,14,14,50,16.90
2015,10,14,14,51,16.90
2015,10,14,14,52,16.90
2015,10,14,14,53,16.90
2015,10,14,14,54,17.00
2015,10,14,14,55,17.00
2015,10,14,14,56,16.90
2015,10,14,14,57,17.00
2015,10,14,14,58,17.00
2015,10,14,14,59,17.00
2015,10,14,15,00,17.00
2015,10,14,15,01,17.00
2015,10,14,15,02,17.00
2015,10,14,15,03,17.10
2015,10,14,15,04,17.10
2015,10,14,15,05,17.10
2015,10,14,15,06,17.10
2015,10,14,15,07,17.10
2015,10,14,15,08,17.00
2015,10,14,15,09,17.00
2015,10,14,15,10,16.90
2015,10,14,15,11,16.90
2015,10,14,15,12,16.80
2015,10,14,15,13,16.70
2015,10,14,15,14,16.70
2015,10,14,15,15,16.70
2015,10,14,15,16,16.70
2015,10,14,15,17,16.70
2015,10,14,15,18,16.80
2015,10,14,15,19,16.80
2015,10,14,15,20,16.80
2015,10,14,15,21,16.80
2015,10,14,15,22,16.80
2015,10,14,15,23,16.80
2015,10,14,15,24,16.80
2015,10,14,15,25,16.90
2015,10,14,15,26,16.90
2015,10,14,15,27,17.00
2015,10,14,15,28,17.10
2015,10,14,15,29,17.10
2015,10,14,15,30,17.20
2015,10,14,15,31,17.20
2015,10,14,15,32,17.30
2015,10,14,15,33,17.30
2015,10,14,15,34,17.30
2015,10,14,15,35,17.30
2015,10,14,15,36,17.30
2015,10,14,15,37,17.30
2015,10,14,15,38,17.30
2015,10,14,15,39,17.30
2015,10,14,15,40,17.30
2015,10,14,15,41,17.30
2015,10,14,15,42,17.20
2015,10,14,15,43,17.20
2015,10,14,15,44,17.20
2015,10,14,15,45,17.10
2015,10,14,15,46,17.10
2015,10,14,15,47,17.10
2015,10,14,15,48,17.10
2015,10,14,15,49,17.10
2015,10,14,15,50,17.10
2015,10,14,15,51,17.10
2015,10,14,15,52,17.10
2015,10,14,15,53,17.10
2015,10,14,15,54,17.20
2015,10,14,15,55,17.20
2015,10,14,15,56,17.20
2015,10,14,15,57,17.30
2015,10,14,15,58,17.30
2015,10,14,15,59,17.30
2015,10,14,16,00,17.30
2015,10,14,16,01,17.30
2015,10,14,16,02,17.30
2015,10,14,16,03,17.30
2015,10,14,16,04,17.30
2015,10,14,16,05,17.30
2015,10,14,16,06,17.30
2015,10,14,16,07,17.20
2015,10,14,16,08,17.20
2015,10,14,16,09,17.20
2015,10,14,16,10,17.20
2015,10,14,16,11,17.20
2015,10,14,16,12,17.20
2015,10,14,16,13,17.20
2015,10,14,16,14,17.30
2015,10,14,16,15,17.30
2015,10,14,16,16,17.30
2015,10,14,16,17,17.30
2015,10,14,16,18,17.40
2015,10,14,16,19,17.40
2015,10,14,16,20,17.40
2015,10,14,16,21,17.40
2015,10,14,16,22,17.40
2015,10,14,16,23,17.40
2015,10,14,16,24,17.40
2015,10,14,16,25,17.40
2015,10,14,16,26,17.40
2015,10,14,16,27,17.40
2015,10,14,16,28,17.30
2015,10,14,16,29,17.30
2015,10,14,16,30,17.30
2015,10,14,16,31,17.30
2015,10,14,16,32,17.30
2015,10,14,16,33,17.30
2015,10,14,16,34,17.20
2015,10,14,16,35,17.20
2015,10,14,16,36,17.20
2015,10,14,16,37,17.20
2015,10,14,16,38,17.10
2015,10,14,16,39,17.10
2015,10,14,16,40,17.00
2015,10,14,16,41,17.00
2015,10,14,16,42,16.90
2015,10,14,16,43,16.90
2015,10,14,16,44,16.80
2015,10,14,16,45,16.80
2015,10,14,16,46,16.70
2015,10,14,16,47,16.60
2015,10,14,16,48,16.60
2015,10,14,16,49,16.50
2015,10,14,16,50,16.50
2015,10,14,16,51,16.40
2015,10,14,16,52,16.30
2015,10,14,16,53,16.30
2015,10,14,16,54,16.20
2015,10,14,16,55,16.10
2015,10,14,16,56,16.00
2015,10,14,16,57,16.00
2015,10,14,16,58,15.90
2015,10,14,16,59,15.90
2015,10,14,17,00,15.80
2015,10,14,17,01,15.70
2015,10,14,17,02,15.60
2015,10,14,17,03,15.60
2015,10,14,17,04,15.50
2015,10,14,17,05,15.50
2015,10,14,17,06,15.40
2015,10,14,17,07,15.40
2015,10,14,17,08,15.30
2015,10,14,17,09,15.30
2015,10,14,17,10,15.20
2015,10,14,17,11,15.20
2015,10,14,17,12,15.10
2015,10,14,17,13,15.10
2015,10,14,17,14,15.00
2015,10,14,17,15,15.00
2015,10,14,17,16,15.00
2015,10,14,17,17,15.00
2015,10,14,17,18,15.00
2015,10,14,17,19,15.00
2015,10,14,17,20,14.90
2015,10,14,17,21,14.80
2015,10,14,17,22,14.80
2015,10,14,17,23,14.70
2015,10,14,17,24,14.70
2015,10,14,17,25,14.60
2015,10,14,17,26,14.60
2015,10,14,17,27,14.60
2015,10,14,17,28,14.50
2015,10,14,17,29,14.50
2015,10,14,17,30,14.50
2015,10,14,17,31,14.40
2015,10,14,17,32,14.40
2015,10,14,17,33,14.40
2015,10,14,17,34,14.30
2015,10,14,17,35,14.30
2015,10,14,17,36,14.30
2015,10,14,17,37,14.20
2015,10,14,17,38,14.20
2015,10,14,17,39,14.10
2015,10,14,17,40,14.10
2015,10,14,17,41,14.10
2015,10,14,17,42,14.00
2015,10,14,17,43,14.00
2015,10,14,17,44,13.90
2015,10,14,17,45,13.90
2015,10,14,17,46,13.80
2015,10,14,17,47,13.80